Location: Lecco
(45.8566°N, 9.3977°E)
Time: 21:35:01
(UTC+02:00)

Vanguard 1 Rocket - Pass Details

Date: 14 August 2020
Orbit: 655 x 4221 km, 34.3° (Epoch: 30 September)

Event Time Altitude Azimuth Distance (km) Brightness Sun altitude
Exits shadow 05:42:28 - 218° (SW) 5,793 10.9 -7.0°
Reaches altitude 10° 05:46:38 10° 209° (SSW) 4,590 10.5 -6.3°
Maximum altitude 05:54:34 22° 165° (SSE) 2,772 9.8 -5.1°
Drops below altitude 10° 05:59:52 10° 118° (ESE) 2,929 10.6 -4.3°
Sets 06:02:39 0° 101° (E) 3,568 11.4 -3.8°
